User: anonymous   Login
Location: Unspecified
(0.0000°N, 0.0000°E)
Time: 11:24:54
(UTC+01:00)
Language:

ASC 2 Rocket - Orbit

View from above orbital plane
View from above orbital plane
View from above satellite
View from above satellite

Ground track
Ground track

The orbit data is extracted from the following two-line orbital elements,

1 21228U 91028B   17054.53131689  .00000347  00000-0  76969-4 0  9993
2 21228  23.9962 226.2110 1143377 213.5221 160.4210 12.53307786183518
Epoch (UTC): 23 February 2017 12:45:05
Eccentricity: 0.1143377
inclination: 23.9962°
perigee height: 555 km
apogee height: 2346 km
right ascension of ascending node: 226.2110°
argument of perigee: 213.5221°
revolutions per day: 12.53307786
mean anomaly at epoch: 160.4210°
orbit number at epoch: 18351

The dashed part of the orbit path shows where the satellite is in the earth's shadow,  

DLR